When you browse on this site, cookies collect data to enhance your experience and personalize the content and advertising you see.
Visit our Privacy Policy to learn more. By continuing to use the site, you agree to this use of cookies and data.
  • In Österreich
  • Länderverzeichnis
  • Für 7 Tage
  • Wassertemperatur
  • Satellitenkarten
  • Wetterkarte
  • News
  • Widgets
  • user-avatar
    Anmelden

    Stündliche Wetter Rohachyn

    Heute, 19 Mai, Sonntag

    Zeit Temperatur Niederschläge Wind Luftdruck Luftfeuchtigkeit
    00:00 +16°C° 0.4 mm 3 m/S 729 mmHg 96%
    01:00 +16°C° 0.4 mm 3 m/S 729 mmHg 96%
    02:00 +14°C° 0 mm 3 m/S 729 mmHg 96%
    03:00 +14°C° 0.1 mm 3 m/S 729 mmHg 97%
    04:00 +14°C° 0.1 mm 3 m/S 729 mmHg 97%
    05:00 +14°C° 0.1 mm 3 m/S 729 mmHg 97%
    06:00 +16°C° 0.1 mm 3 m/S 729 mmHg 95%
    07:00 +17°C° 0.1 mm 3 m/S 729 mmHg 93%
    08:00 +18°C° 0 mm 4 m/S 729 mmHg 90%
    09:00 +19°C° 0.9 mm 4 m/S 729 mmHg 86%
    10:00 +20°C° 0.9 mm 5 m/S 729 mmHg 83%
    11:00 +21°C° 0.9 mm 5 m/S 729 mmHg 79%
    12:00 +22°C° 0.3 mm 5 m/S 729 mmHg 76%
    13:00 +23°C° 0.3 mm 5 m/S 729 mmHg 74%
    14:00 +25°C° 0.3 mm 5 m/S 729 mmHg 72%
    15:00 +23°C° 0.9 mm 4 m/S 728 mmHg 74%
    16:00 +23°C° 0.9 mm 4 m/S 728 mmHg 76%
    17:00 +23°C° 0.9 mm 4 m/S 728 mmHg 79%
    18:00 +21°C° 0.6 mm 4 m/S 728 mmHg 83%
    19:00 +20°C° 0.6 mm 3 m/S 728 mmHg 87%
    20:00 +19°C° 0.6 mm 3 m/S 728 mmHg 90%
    21:00 +18°C° 0.2 mm 4 m/S 728 mmHg 92%
    22:00 +18°C° 0.2 mm 4 m/S 728 mmHg 93%
    23:00 +18°C° 0.2 mm 4 m/S 728 mmHg 94%

    Morgen, 20 Mai, Montag

    Zeit Temperatur Niederschläge Wind Luftdruck Luftfeuchtigkeit
    00:00 +18°C° 0 mm 4 m/S 728 mmHg 95%
    01:00 +17°C° 0 mm 5 m/S 728 mmHg 95%
    02:00 +17°C° 0 mm 5 m/S 728 mmHg 95%
    03:00 +16°C° 0 mm 5 m/S 727 mmHg 95%
    04:00 +16°C° 0 mm 6 m/S 727 mmHg 95%
    05:00 +16°C° 0 mm 7 m/S 727 mmHg 95%
    06:00 +17°C° 0 mm 7 m/S 727 mmHg 92%
    07:00 +18°C° 0 mm 8 m/S 727 mmHg 89%
    08:00 +18°C° 0 mm 9 m/S 727 mmHg 86%
    09:00 +19°C° 0 mm 9 m/S 728 mmHg 82%
    10:00 +22°C° 0 mm 10 m/S 728 mmHg 79%
    11:00 +23°C° 0 mm 10 m/S 728 mmHg 76%
    12:00 +23°C° 0.1 mm 10 m/S 728 mmHg 76%
    13:00 +23°C° 0.1 mm 9 m/S 728 mmHg 76%
    14:00 +23°C° 0.1 mm 9 m/S 728 mmHg 76%
    15:00 +23°C° 1.9 mm 8 m/S 728 mmHg 79%
    16:00 +22°C° 1.9 mm 7 m/S 728 mmHg 81%
    17:00 +21°C° 1.9 mm 6 m/S 728 mmHg 84%
    18:00 +20°C° 1.5 mm 5 m/S 727 mmHg 86%
    19:00 +19°C° 1.5 mm 4 m/S 727 mmHg 88%
    20:00 +18°C° 1.5 mm 3 m/S 727 mmHg 91%
    21:00 +17°C° 1.2 mm 3 m/S 727 mmHg 92%
    22:00 +17°C° 1.2 mm 3 m/S 727 mmHg 93%
    23:00 +17°C° 1.2 mm 2 m/S 727 mmHg 94%

    übermorgen, 21 Mai, Dienstag

    Zeit Temperatur Niederschläge Wind Luftdruck Luftfeuchtigkeit
    00:00 +16°C° 0.6 mm 2 m/S 727 mmHg 94%
    01:00 +16°C° 0.6 mm 2 m/S 727 mmHg 94%
    02:00 +16°C° 0.6 mm 2 m/S 727 mmHg 94%
    03:00 +15°C° 0.5 mm 2 m/S 727 mmHg 94%
    04:00 +15°C° 0.5 mm 2 m/S 727 mmHg 95%
    05:00 +15°C° 0.5 mm 2 m/S 727 mmHg 96%
    06:00 +15°C° 0.1 mm 2 m/S 727 mmHg 95%
    07:00 +15°C° 0.1 mm 2 m/S 727 mmHg 94%
    08:00 +15°C° 0.1 mm 2 m/S 727 mmHg 93%
    09:00 +16°C° 0.3 mm 2 m/S 728 mmHg 88%
    10:00 +17°C° 0.3 mm 2 m/S 728 mmHg 83%
    11:00 +18°C° 0.3 mm 2 m/S 728 mmHg 79%
    12:00 +18°C° 1.3 mm 3 m/S 728 mmHg 78%
    13:00 +18°C° 1.3 mm 3 m/S 728 mmHg 77%
    14:00 +18°C° 1.3 mm 3 m/S 728 mmHg 77%
    15:00 +18°C° 0 mm 3 m/S 728 mmHg 75%
    16:00 +19°C° 0 mm 3 m/S 728 mmHg 73%
    17:00 +19°C° 0 mm 3 m/S 728 mmHg 72%
    18:00 +17°C° 0.1 mm 3 m/S 728 mmHg 75%
    19:00 +16°C° 0.1 mm 2 m/S 728 mmHg 79%
    20:00 +15°C° 0.1 mm 2 m/S 728 mmHg 82%
    21:00 +14°C° 0 mm 2 m/S 729 mmHg 83%
    22:00 +13°C° 0 mm 2 m/S 729 mmHg 84%
    23:00 +12°C° 0 mm 2 m/S 729 mmHg 85%

    22 Mai, Mittwoch

    Zeit Temperatur Niederschläge Wind Luftdruck Luftfeuchtigkeit
    00:00 +12°C° 0 mm 2 m/S 729 mmHg 86%
    01:00 +10°C° 0 mm 2 m/S 729 mmHg 87%
    02:00 +11°C° 0 mm 1 m/S 729 mmHg 88%
    03:00 +11°C° 0 mm 1 m/S 729 mmHg 88%
    04:00 +11°C° 0 mm 1 m/S 729 mmHg 89%
    05:00 +11°C° 0 mm 1 m/S 730 mmHg 89%
    06:00 +12°C° 0 mm 1 m/S 730 mmHg 85%
    07:00 +14°C° 0 mm 2 m/S 730 mmHg 82%
    08:00 +15°C° 0 mm 2 m/S 730 mmHg 78%
    09:00 +17°C° 0 mm 2 m/S 730 mmHg 74%
    10:00 +18°C° 0 mm 2 m/S 730 mmHg 70%
    11:00 +19°C° 0 mm 3 m/S 730 mmHg 66%
    12:00 +20°C° 0.2 mm 3 m/S 730 mmHg 65%
    13:00 +20°C° 0.2 mm 3 m/S 730 mmHg 63%
    14:00 +21°C° 0.2 mm 3 m/S 730 mmHg 62%
    15:00 +20°C° 0.3 mm 3 m/S 730 mmHg 65%
    16:00 +20°C° 0.3 mm 3 m/S 729 mmHg 68%
    17:00 +20°C° 0.3 mm 3 m/S 729 mmHg 72%
    18:00 +18°C° 0 mm 3 m/S 729 mmHg 76%
    19:00 +17°C° 0 mm 2 m/S 729 mmHg 80%
    20:00 +15°C° 0 mm 1 m/S 729 mmHg 84%
    21:00 +15°C° 0 mm 1 m/S 729 mmHg 85%
    22:00 +14°C° 0 mm 1 m/S 729 mmHg 87%
    23:00 +13°C° 0 mm 1 m/S 729 mmHg 89%

    23 Mai, Donnerstag

    Zeit Temperatur Niederschläge Wind Luftdruck Luftfeuchtigkeit
    00:00 +13°C° 0 mm 2 m/S 729 mmHg 90%
    01:00 +12°C° 0 mm 2 m/S 729 mmHg 91%
    02:00 +12°C° 0 mm 2 m/S 729 mmHg 92%
    03:00 +12°C° 0 mm 1 m/S 729 mmHg 93%
    04:00 +11°C° 0 mm 1 m/S 729 mmHg 93%
    05:00 +11°C° 0 mm 1 m/S 729 mmHg 94%
    06:00 +13°C° 0 mm 2 m/S 729 mmHg 91%
    07:00 +14°C° 0 mm 2 m/S 730 mmHg 88%
    08:00 +16°C° 0 mm 3 m/S 730 mmHg 85%
    09:00 +17°C° 0.1 mm 3 m/S 730 mmHg 83%
    10:00 +18°C° 0.1 mm 3 m/S 730 mmHg 80%
    11:00 +19°C° 0.1 mm 4 m/S 730 mmHg 78%
    12:00 +19°C° 0.8 mm 4 m/S 730 mmHg 78%
    13:00 +19°C° 0.8 mm 4 m/S 729 mmHg 78%
    14:00 +20°C° 0.8 mm 4 m/S 729 mmHg 78%
    15:00 +20°C° 0.1 mm 4 m/S 729 mmHg 78%
    16:00 +20°C° 0.1 mm 4 m/S 729 mmHg 77%
    17:00 +20°C° 0.1 mm 4 m/S 729 mmHg 76%
    18:00 +19°C° 0.7 mm 4 m/S 729 mmHg 81%
    19:00 +17°C° 0.7 mm 3 m/S 729 mmHg 85%
    20:00 +16°C° 0.7 mm 3 m/S 729 mmHg 90%
    21:00 +14°C° 0.2 mm 4 m/S 729 mmHg 92%
    22:00 +13°C° 0.2 mm 4 m/S 729 mmHg 95%
    23:00 +13°C° 0.2 mm 4 m/S 730 mmHg 97%

    24 Mai, Freitag

    Zeit Temperatur Niederschläge Wind Luftdruck Luftfeuchtigkeit
    00:00 +13°C° 0 mm 4 m/S 730 mmHg 97%
    01:00 +13°C° 0 mm 4 m/S 729 mmHg 97%
    02:00 +12°C° 0 mm 4 m/S 729 mmHg 98%
    03:00 +13°C° 0 mm 4 m/S 729 mmHg 97%
    04:00 +13°C° 0 mm 4 m/S 729 mmHg 97%
    05:00 +13°C° 0 mm 3 m/S 730 mmHg 97%
    06:00 +13°C° 0.1 mm 3 m/S 730 mmHg 97%
    07:00 +13°C° 0.1 mm 4 m/S 730 mmHg 96%
    08:00 +13°C° 0.1 mm 4 m/S 730 mmHg 95%
    09:00 +13°C° 0.1 mm 4 m/S 730 mmHg 94%
    10:00 +13°C° 0.1 mm 4 m/S 730 mmHg 92%
    11:00 +13°C° 0.1 mm 4 m/S 730 mmHg 91%
    12:00 +14°C° 0 mm 4 m/S 729 mmHg 89%
    13:00 +14°C° 0 mm 3 m/S 729 mmHg 87%
    14:00 +14°C° 0 mm 3 m/S 729 mmHg 85%
    15:00 +16°C° 0 mm 3 m/S 728 mmHg 85%
    16:00 +16°C° 0 mm 3 m/S 728 mmHg 84%
    17:00 +16°C° 0 mm 3 m/S 728 mmHg 84%
    18:00 +14°C° 0 mm 3 m/S 727 mmHg 87%
    19:00 +14°C° 0 mm 2 m/S 727 mmHg 90%
    20:00 +13°C° 0 mm 1 m/S 727 mmHg 93%
    21:00 +13°C° 0 mm 1 m/S 726 mmHg 94%
    22:00 +12°C° 0 mm 1 m/S 726 mmHg 94%
    23:00 +11°C° 0 mm 1 m/S 726 mmHg 95%
    Mehr zeigen